Flag Weather past 2 weeks in Askim, Norway

Now
36 °F

Passing clouds.


Feels Like: 32 °F
Forecast: 30 / 33 °F
Wind: 5 mph from Northeast

Location: Rygge

Current Time: Nov 28, 2014 at 6:19:56 PM

Latest Report: Nov 28, 2014 at 5:50 PM


Visibility: N/A

Pressure: 30.45 "Hg

Humidity: 93%

Dew point: 34 °F

Location of AskimLocation

Historic Weather in Askim — Graph

°F

Askim temperature yesterday

Maximum temperature yesterday: 32 °F (at 10:20 AM)
Minimum temperature yesterday: 30 °F (at 12:12 AM)
Average temperature yesterday: 31 °F

Past Weeks' High & Low Weather Summary

 TemperatureHumidityPressure
High46 °F (Nov 24, 3:50 AM)100% (Nov 13, 11:20 PM)30.51 "Hg (Nov 13, 11:20 PM)
Low28 °F (Nov 25, 9:50 PM)76% (Nov 17, 2:20 AM)29.68 "Hg (Nov 24, 5:50 AM)
Average38 °F94%30.22 "Hg
* Reported Nov 13 4:20 PM — Nov 28 4:50 PM, Askim, Weather by CustomWeather, © 2014

Note: Actual official high and low records may vary slightly from our data, if they occured in-between our weather recording intervals... More about our weather records

Advertising

Askim weather history for previous 24 hours

 ConditionsComfort  
Time TempWeatherWind HumidityBarometerVisibility
4:50 PM
Nov 28
36 °FPassing clouds.7 mph93%30.42 "HgN/A
4:20 PM36 °FPassing clouds.7 mph93%30.42 "HgN/A
3:50 PM36 °FPassing clouds.7 mph93%30.42 "HgN/A
3:20 PM34 °FBroken clouds.5 mph100%30.39 "HgN/A
2:50 PM36 °FPartly sunny.6 mph93%30.39 "HgN/A
2:20 PM34 °FPartly sunny.5 mph100%30.39 "HgN/A
1:50 PM34 °FPartly sunny.6 mph100%30.39 "HgN/A
1:20 PM34 °FPartly sunny.5 mph100%30.39 "HgN/A
12:50 PM34 °FPartly sunny.5 mph100%30.39 "HgN/A
12:20 PM34 °FPartly sunny.2 mph93%30.39 "HgN/A
11:50 AM34 °FPartly sunny.3 mph93%30.39 "HgN/A
11:20 AM34 °FPartly sunny.6 mph93%30.39 "HgN/A
10:50 AM34 °FPartly sunny.6 mph93%30.39 "HgN/A
10:20 AM32 °FPartly sunny.5 mph100%30.39 "Hg6 mi
9:50 AM32 °FPartly sunny.6 mph100%30.39 "HgN/A
9:20 AM32 °FPartly sunny.6 mph100%30.36 "HgN/A
8:50 AM32 °FBroken clouds.5 mph100%30.36 "HgN/A
7:50 AM32 °FPassing clouds.5 mph100%30.36 "HgN/A
7:20 AM32 °FPassing clouds.3 mph100%30.33 "HgN/A
6:50 AM32 °FPassing clouds.5 mph100%30.33 "HgN/A
6:20 AM32 °FPassing clouds.5 mph100%30.33 "HgN/A
12:50 AM32 °FPassing clouds.5 mph93%30.30 "HgN/A
12:20 AM32 °FPartly cloudy.5 mph93%30.27 "HgN/A
11:50 PM
Nov 27
32 °FPassing clouds.8 mph93%30.27 "HgN/A
11:20 PM32 °FPassing clouds.6 mph93%30.27 "HgN/A
10:50 PM32 °FPassing clouds.5 mph93%30.27 "HgN/A
10:20 PM32 °FPassing clouds.7 mph100%30.27 "HgN/A
9:50 PM32 °FPassing clouds.6 mph93%30.27 "HgN/A
9:20 PM32 °FPartly cloudy.5 mph100%30.27 "HgN/A
8:50 PM32 °FLow clouds.6 mph100%30.24 "HgN/A
8:20 PM32 °FLow clouds.3 mph93%30.24 "Hg4 mi
7:50 PM32 °FOvercast.5 mph100%30.24 "HgN/A
7:20 PM32 °FPartly cloudy.6 mph100%30.24 "HgN/A
6:50 PM32 °FLow clouds.6 mph100%30.24 "HgN/A
6:20 PM32 °FLight snow. Passing clouds.5 mph100%30.21 "Hg3 mi
Weather by CustomWeather, © 2014

See weather overviewHow to use our weather pages